Frisco, NC

11:20 PM EDT on August 31, 2016 (GMT -0400)
Mitchell

Weather History for KHSE - October, 2015

Change the Weather History Date:

Thursday, October 8, 2015

  Actual Average Record
Temperature  
Mean Temperature 65 °F 68 °F  
Max Temperature 72 °F 74 °F 86 °F (1959)
Min Temperature 58 °F 62 °F 45 °F (1980)
Degree Days  
Heating Degree Days 0 1  
Month to date heating degree days 0 8  
Since 1 July heating degree days 0 11  
Cooling Degree Days 0 4  
Month to date cooling degree days 47 41  
Year to date cooling degree days 1932 1633  
Growing Degree Days 14 (Base 50)    
Moisture  
Dew Point 61 °F    
Average Humidity 89    
Maximum Humidity 100    
Minimum Humidity 78    
Precipitation  
Precipitation 0.00 in 0.17 in 5.24 in (1993)
Month to date precipitation 6.27 1.46  
Year to date precipitation 55.50 44.90  
Snow  
Snow 0.00 in - - ()
Month to date snowfall 0.0  
Since 1 July snowfall 0.0  
Snow Depth 0.00 in    
Sea Level Pressure  
Sea Level Pressure 30.11 in    
Wind  
Wind Speed 5 mph (NE)    
Max Wind Speed 10 mph    
Max Gust Speed 15 mph    
Visibility 10 miles    
Events      
T = Trace of Precipitation, MM = Missing Value Source: NWS Daily Summary

Daily Weather History Graph

Daily Weather History Graph

Search for Another Location

Airport or City:

Trip Planner

Search our weather history database for the weather conditions in past years. The results will help you decide how hot, cold, wet, or windy it might be!

Date:

Astronomy

Oct. 08, 2015 Rise Set
Actual Time 7:02 AM EDT 6:36 PM EDT
Civil Twilight 6:37 AM EDT 7:02 PM EDT
Nautical Twilight 6:07 AM EDT 7:31 PM EDT
Astronomical Twilight 5:38 AM EDT 8:01 PM EDT
Moon 3:06 AM EDT (10/8) 4:24 PM EDT (10/8)
Length of Visible Light 12h 25m
Length of Day
11h 34m
Waning Crescent, 16% of the Moon is Illuminated
Oct 8
Waning Crescent
Oct 12
New
Oct 20
First Quarter
Oct 27
Full
Nov 3
Last Quarter

Hourly Weather History & Observations

Time (EDT) Temp. Dew Point Humidity Pressure Visibility Wind Dir Wind Speed Gust Speed Precip Events Conditions
12:51 AM 62.1 °F 60.1 °F 93% 30.07 in 10.0 mi NE 3.5 mph - N/A   Clear
1:51 AM 62.1 °F 60.1 °F 93% 30.08 in 10.0 mi NNE 3.5 mph - N/A   Clear
2:51 AM 61.0 °F 60.1 °F 97% 30.07 in 10.0 mi NE 3.5 mph - N/A   Clear
3:51 AM 61.0 °F 60.1 °F 97% 30.07 in 10.0 mi NNE 3.5 mph - N/A   Clear
4:51 AM 57.9 °F 57.9 °F 100% 30.07 in 10.0 mi NNE 3.5 mph - N/A   Clear
5:51 AM 60.1 °F 60.1 °F 100% 30.08 in 10.0 mi Calm Calm - N/A   Clear
6:51 AM 63.0 °F 62.1 °F 97% 30.09 in 10.0 mi North 3.5 mph - N/A   Clear
7:51 AM 64.0 °F 62.1 °F 93% 30.10 in 10.0 mi Calm Calm - N/A   Clear
8:51 AM 66.9 °F 63.0 °F 87% 30.12 in 10.0 mi Variable 4.6 mph - N/A   Clear
9:51 AM 68.0 °F 64.0 °F 87% 30.14 in 10.0 mi Variable 5.8 mph - N/A   Clear
10:51 AM 69.1 °F 64.0 °F 84% 30.14 in 10.0 mi Variable 6.9 mph - N/A   Clear
11:51 AM 70.0 °F 63.0 °F 78% 30.15 in 10.0 mi NNE 8.1 mph - N/A   Clear
12:51 PM 70.0 °F 63.0 °F 78% 30.14 in 10.0 mi NNE 9.2 mph - N/A   Clear
1:51 PM 70.0 °F 63.0 °F 78% 30.12 in 10.0 mi Variable 6.9 mph - N/A   Clear
2:51 PM 70.0 °F 63.0 °F 78% 30.11 in 10.0 mi Variable 6.9 mph - N/A   Clear
3:51 PM 70.0 °F 63.0 °F 78% 30.11 in 10.0 mi NE 6.9 mph - N/A   Clear
4:51 PM 69.1 °F 62.1 °F 78% 30.12 in 10.0 mi Variable 5.8 mph - N/A   Clear
5:51 PM 66.9 °F 61.0 °F 81% 30.12 in 10.0 mi NE 4.6 mph - N/A   Clear
6:51 PM 63.0 °F 61.0 °F 93% 30.12 in 10.0 mi ENE 4.6 mph - N/A   Clear
7:51 PM 62.1 °F 62.1 °F 100% 30.12 in 10.0 mi NE 4.6 mph - N/A   Clear
8:51 PM 61.0 °F 61.0 °F 100% 30.13 in 10.0 mi ENE 4.6 mph - N/A   Clear
9:51 PM 61.0 °F 61.0 °F 100% 30.14 in 10.0 mi ENE 4.6 mph - N/A   Clear
10:51 PM 60.1 °F 60.1 °F 100% 30.14 in 10.0 mi East 4.6 mph - N/A   Clear
11:51 PM 57.9 °F 57.9 °F 100% 30.13 in 10.0 mi East 3.5 mph - N/A   Clear